#timestamp,LO_Frequency,Hit,StdDev 
1526140815.6,286046998.6,N
1526140835.4,286046998.5,N
1526140855.3,286046998.1,N
1526140875.1,286047000.5,N
1526140895.9,286047001.1,N
1526140915.7,286046998.1,N
1526140935.5,286047001.2,N
1526140955.4,286047000.4,N
1526140975.2,286047002.6,N
1526140995.0,286047001.5,N
1526140995.9,286047001.5,N
1526141015.8,286047004.0,N
1526141035.6,286047003.6,N
1526141055.5,286047005.5,Y
1526141075.3,286047003.6,P
1526141095.1,286047004.1,N
1526141115.9,286047003.8,N
1526141135.7,286047003.5,N
1526141155.6,286047001.4,N
1526141175.4,286047001.4,N
1526141195.2,286047003.5,N
1526141215.1,286047002.0,N
1526141216.0,286047002.0,N
1526141235.8,286047002.0,N
1526141255.6,286047002.1,N
1526141275.5,286047000.1,N
1526141295.3,286047000.9,N
1526141315.2,286047001.0,N
1526141335.9,286047001.0,N
1526141355.7,286047000.6,N
1526141375.6,286046999.8,N
1526141395.4,286047002.8,N
1526141415.2,286047001.6,N
1526141435.1,286047001.6,N
1526141436.0,286047001.6,N
1526141455.8,286047002.3,N
1526141475.7,286046999.7,N
1526141495.5,286047001.9,N
1526141515.3,286047002.1,N
1526141535.2,286047004.3,Y
1526141555.0,286047001.5,P
1526141555.9,286047001.5,P
1526141575.8,286047002.0,P
1526141595.6,286047002.4,Y
1526141615.4,286047001.2,P
1526141635.3,286046996.9,P
1526141655.1,286046996.9,N
1526141675.8,286046998.1,N
1526141695.7,286047000.6,N
1526141715.5,286046998.1,N
1526141735.4,286047000.1,N
1526141755.2,286047000.4,N
1526141775.0,286047000.5,N
1526141775.9,286047000.5,N
1526141795.8,286046998.5,N
1526141815.6,286046998.8,N
1526141835.5,286047001.1,N
1526141855.3,286047000.6,N
1526141875.1,286046998.5,N
1526141895.9,286046999.5,N
1526141915.7,286046999.4,N
1526141935.5,286046998.3,N
1526141955.4,286046999.0,N
1526141975.2,286046999.2,N
1526141995.1,286046999.1,N
1526141996.0,286046999.1,N
1526142015.8,286046999.0,N
1526142035.6,286046999.4,N
1526142055.5,286046999.3,N
1526142075.3,286046997.0,N
1526142095.1,286046998.8,N
1526142115.9,286046998.8,N
1526142135.7,286047000.8,N
1526142155.6,286046998.8,N
1526142175.4,286046998.5,N
1526142195.2,286046996.5,Y
1526142215.1,286046998.6,P
1526142216.0,286046998.6,P
1526142235.8,286046998.7,P
1526142255.7,286046998.1,Y
1526142275.5,286047000.8,P
1526142295.3,286047001.5,N
1526142315.2,286047000.0,N
1526142335.0,286047000.1,N
1526142335.9,286047000.1,N
1526142355.8,286047001.0,N
1526142375.6,286047002.7,Y
1526142395.4,286046999.8,P
1526142415.3,286047002.4,P
1526142435.1,286047000.1,N
1526142455.8,286047000.2,N
1526142475.7,286046999.7,N
1526142495.5,286047001.6,N
1526142515.4,286047001.9,N
1526142535.2,286047000.2,N
1526142555.0,286047002.3,N
1526142555.9,286047002.3,N
1526142575.8,286047002.7,N
1526142595.6,286047001.6,N
1526142615.4,286047001.9,N
1526142635.3,286047001.9,N
1526142655.1,286047004.4,Y
1526142675.9,286046999.7,P
1526142695.7,286046999.7,N
1526142715.5,286047002.0,N
1526142735.4,286047000.2,N
1526142755.2,286047002.3,N
1526142775.1,286047002.3,N
1526142776.0,286047002.3,N
1526142795.8,286047002.5,N
1526142815.6,286046999.8,N
1526142835.5,286047002.4,N
1526142855.3,286047000.3,N
1526142875.1,286047002.5,N
1526142895.9,286047000.6,N
1526142915.7,286046998.1,N
1526142935.6,286046998.6,N
1526142955.4,286046998.2,N
1526142975.2,286047001.0,N
1526142995.1,286047000.7,N
1526142996.0,286047000.7,N
1526143015.8,286047000.5,N
1526143035.6,286046999.7,N
1526143055.5,286047002.7,N
1526143075.3,286047002.2,N
1526143095.2,286047002.2,N
1526143115.0,286047002.6,N
1526143115.9,286047002.6,N
1526143135.7,286046999.9,N
1526143155.6,286047001.6,N
1526143175.4,286047002.4,N
1526143195.3,286047004.0,N
1526143215.1,286047003.8,N
1526143235.8,286047003.2,N
1526143255.7,286047003.9,N
1526143275.5,286047002.1,N
1526143295.4,286047002.4,N
1526143315.2,286047002.4,N
1526143335.0,286047001.5,N
1526143335.9,286047001.5,N
1526143355.8,286047001.5,N
1526143375.6,286047001.5,N
1526143395.4,286047002.0,N
1526143415.3,286047001.8,N
1526143435.1,286047001.9,N
1526143455.9,286047004.0,N
1526143475.7,286047003.5,N
1526143495.5,286047004.3,Y
1526143515.4,286047000.2,P
1526143535.2,286047001.0,N
1526143555.0,286047002.7,P
1526143556.0,286047002.7,N
1526143575.8,286046999.8,N
1526143595.6,286047002.4,N
1526143615.5,286047002.6,N
1526143635.3,286047002.8,N
1526143655.1,286047002.7,N
1526143675.9,286047000.5,N
1526143695.7,286047000.8,N
1526143715.6,286047000.2,N
1526143735.4,286046998.1,N
1526143755.2,286046998.5,N
1526143775.1,286046998.2,N
1526143776.0,286046998.2,N
1526143795.8,286047001.2,N
1526143815.7,286047002.4,N
1526143835.5,286047002.1,N
1526143855.3,286047002.7,N
1526143875.2,286047003.7,N
1526143895.9,286047001.8,N
1526143915.7,286047002.3,N
1526143935.6,286047002.5,N
1526143955.4,286047000.4,N
1526143975.3,286047000.8,N
1526143995.1,286047002.7,N
1526143996.0,286047002.7,N
1526144015.8,286047002.1,N
1526144035.7,286047004.3,N
1526144055.5,286047003.8,N
1526144075.3,286047003.2,N
1526144095.2,286047001.7,N
1526144115.0,286047003.0,N
1526144115.9,286047003.0,N
1526144135.8,286047006.0,Y
1526144155.6,286047004.3,P
1526144175.4,286047002.0,N
1526144195.3,286047001.5,N
1526144215.1,286047003.9,Y
1526144235.9,286047000.4,P
1526144255.7,286047001.6,N
1526144275.5,286047000.1,N
1526144295.4,286047000.3,N
1526144315.2,286047002.8,Y
1526144335.0,286047000.6,P
1526144335.9,286047000.6,P
1526144355.8,286047000.1,N
1526144375.6,286046998.4,Y
1526144395.5,286046996.7,P
